Tracking 19847 objects as of 17-Sep-2019
HD Live streaming from Space Station
objects crossing your sky now

COSMOS 644

Track COSMOS 644 now!
10-day predictions
COSMOS 644 is classified as:


NORAD ID: 7268
Int'l Code: 1974-024D
Perigee: 1,342.0 km
Apogee: 1,488.2 km
Inclination: 74.0 °
Period: 114.0 minutes
Semi major axis: 7786 km
RCS: 0.704 m2 (medium)
Launch date: April 23, 1974
Source: Commonwealth of Independent States (former USSR) (CIS)
Launch site: PLESETSK MISSILE AND SPACE COMPLEX (PKMTR)
aabbcc
Your satellite tracking list
Your tracking list is empty




NASA's NSSDC Master Catalog

Two Line Element Set (TLE):
1  7268U 74024D   19260.13035717  .00000010  00000-0  14239-3 0  9998
2  7268  74.0173 137.7139 0093898 127.9414 233.0177 12.63644665 94495
Source of the keplerian elements: AFSPC